When you browse on this site, cookies collect data to enhance your experience and personalize the content and advertising you see.
Visit our Privacy Policy to learn more. By continuing to use the site, you agree to this use of cookies and data.
  • en France
  • Liste des pays
  • À 7 jours
  • Température de l'eau
  • Carte satellitaire
  • Carte météo
  • Widgets météo
  • user-avatar
    Se connecter

    Météo par heure à Albany

    Ce jour, 23 Mai, Jeudi

    Heure Température Précipitation Vent Pression Humidité
    00:00 +14°C° 0 mm 4 m/s 761 mmHg 78%
    01:00 +13°C° 0 mm 4 m/s 761 mmHg 81%
    02:00 +13°C° 0 mm 4 m/s 761 mmHg 84%
    03:00 +13°C° 0 mm 4 m/s 761 mmHg 86%
    04:00 +13°C° 0 mm 4 m/s 761 mmHg 88%
    05:00 +12°C° 0 mm 4 m/s 761 mmHg 89%
    06:00 +13°C° 0 mm 4 m/s 762 mmHg 89%
    07:00 +13°C° 0 mm 4 m/s 762 mmHg 88%
    08:00 +14°C° 0 mm 5 m/s 762 mmHg 86%
    09:00 +15°C° 0.1 mm 5 m/s 762 mmHg 79%
    10:00 +17°C° 0.1 mm 5 m/s 762 mmHg 72%
    11:00 +20°C° 0.1 mm 5 m/s 762 mmHg 65%
    12:00 +20°C° 0.1 mm 6 m/s 762 mmHg 63%
    13:00 +20°C° 0.1 mm 6 m/s 762 mmHg 61%
    14:00 +21°C° 0.1 mm 6 m/s 761 mmHg 58%
    15:00 +20°C° 0 mm 6 m/s 761 mmHg 62%
    16:00 +19°C° 0 mm 5 m/s 762 mmHg 65%
    17:00 +17°C° 0 mm 5 m/s 762 mmHg 69%
    18:00 +16°C° 0 mm 5 m/s 762 mmHg 72%
    19:00 +15°C° 0 mm 5 m/s 762 mmHg 75%
    20:00 +15°C° 0 mm 5 m/s 762 mmHg 78%
    21:00 +14°C° 0 mm 5 m/s 762 mmHg 81%
    22:00 +14°C° 0 mm 5 m/s 762 mmHg 83%
    23:00 +14°C° 0 mm 5 m/s 763 mmHg 85%

    Demain, 24 Mai, Vendredi

    Heure Température Précipitation Vent Pression Humidité
    00:00 +14°C° 0 mm 5 m/s 762 mmHg 86%
    01:00 +14°C° 0 mm 5 m/s 762 mmHg 87%
    02:00 +13°C° 0 mm 6 m/s 762 mmHg 88%
    03:00 +14°C° 0.1 mm 5 m/s 762 mmHg 87%
    04:00 +14°C° 0.1 mm 5 m/s 762 mmHg 86%
    05:00 +14°C° 0.1 mm 5 m/s 762 mmHg 85%
    06:00 +14°C° 0.1 mm 5 m/s 762 mmHg 85%
    07:00 +14°C° 0.1 mm 5 m/s 762 mmHg 85%
    08:00 +14°C° 0.1 mm 5 m/s 762 mmHg 84%
    09:00 +15°C° 0.1 mm 5 m/s 763 mmHg 78%
    10:00 +16°C° 0.1 mm 6 m/s 763 mmHg 73%
    11:00 +17°C° 0.1 mm 6 m/s 763 mmHg 67%
    12:00 +17°C° 0.1 mm 6 m/s 763 mmHg 67%
    13:00 +17°C° 0.1 mm 6 m/s 762 mmHg 67%
    14:00 +16°C° 0.1 mm 6 m/s 762 mmHg 67%
    15:00 +16°C° 0.1 mm 5 m/s 762 mmHg 69%
    16:00 +16°C° 0.1 mm 5 m/s 762 mmHg 71%
    17:00 +15°C° 0.1 mm 5 m/s 763 mmHg 73%
    18:00 +15°C° 0.1 mm 4 m/s 763 mmHg 76%
    19:00 +14°C° 0.1 mm 4 m/s 763 mmHg 79%
    20:00 +14°C° 0.1 mm 3 m/s 764 mmHg 82%
    21:00 +14°C° 0.1 mm 3 m/s 764 mmHg 82%
    22:00 +14°C° 0.1 mm 3 m/s 764 mmHg 81%
    23:00 +14°C° 0.1 mm 3 m/s 765 mmHg 81%

    Après-demain, 25 Mai, Samedi

    Heure Température Précipitation Vent Pression Humidité
    00:00 +13°C° 0.1 mm 3 m/s 765 mmHg 82%
    01:00 +13°C° 0.1 mm 3 m/s 764 mmHg 84%
    02:00 +12°C° 0.1 mm 3 m/s 764 mmHg 85%
    03:00 +12°C° 0 mm 3 m/s 764 mmHg 84%
    04:00 +13°C° 0 mm 2 m/s 764 mmHg 83%
    05:00 +14°C° 0 mm 2 m/s 764 mmHg 82%
    06:00 +14°C° 0 mm 2 m/s 765 mmHg 83%
    07:00 +13°C° 0 mm 2 m/s 765 mmHg 83%
    08:00 +13°C° 0 mm 2 m/s 765 mmHg 84%
    09:00 +14°C° 0.1 mm 2 m/s 766 mmHg 82%
    10:00 +14°C° 0.1 mm 2 m/s 766 mmHg 80%
    11:00 +15°C° 0.1 mm 2 m/s 766 mmHg 78%
    12:00 +15°C° 0.1 mm 2 m/s 765 mmHg 78%
    13:00 +15°C° 0.1 mm 2 m/s 765 mmHg 78%
    14:00 +15°C° 0.1 mm 2 m/s 765 mmHg 78%
    15:00 +14°C° 0 mm 2 m/s 765 mmHg 79%
    16:00 +14°C° 0 mm 2 m/s 765 mmHg 80%
    17:00 +14°C° 0 mm 2 m/s 765 mmHg 81%
    18:00 +14°C° 0 mm 2 m/s 766 mmHg 81%
    19:00 +13°C° 0 mm 2 m/s 766 mmHg 81%
    20:00 +13°C° 0 mm 2 m/s 766 mmHg 81%
    21:00 +13°C° 0 mm 2 m/s 766 mmHg 80%
    22:00 +13°C° 0 mm 2 m/s 766 mmHg 79%
    23:00 +13°C° 0 mm 1 m/s 767 mmHg 79%

    26 Mai, Dimanche

    Heure Température Précipitation Vent Pression Humidité
    00:00 +13°C° 0 mm 2 m/s 766 mmHg 77%
    01:00 +13°C° 0 mm 2 m/s 766 mmHg 76%
    02:00 +13°C° 0 mm 2 m/s 766 mmHg 75%
    03:00 +13°C° 0 mm 2 m/s 766 mmHg 74%
    04:00 +13°C° 0 mm 2 m/s 766 mmHg 73%
    05:00 +13°C° 0 mm 2 m/s 766 mmHg 73%
    06:00 +13°C° 0 mm 1 m/s 766 mmHg 72%
    07:00 +13°C° 0 mm 1 m/s 767 mmHg 71%
    08:00 +13°C° 0 mm 1 m/s 767 mmHg 70%
    09:00 +15°C° 0 mm 1 m/s 767 mmHg 64%
    10:00 +16°C° 0 mm 1 m/s 767 mmHg 58%
    11:00 +16°C° 0 mm 0 m/s 767 mmHg 53%
    12:00 +18°C° 0 mm 1 m/s 767 mmHg 54%
    13:00 +17°C° 0 mm 2 m/s 766 mmHg 55%
    14:00 +17°C° 0 mm 2 m/s 766 mmHg 56%
    15:00 +16°C° 0 mm 2 m/s 766 mmHg 63%
    16:00 +15°C° 0 mm 2 m/s 766 mmHg 70%
    17:00 +14°C° 0 mm 2 m/s 767 mmHg 77%
    18:00 +13°C° 0 mm 2 m/s 767 mmHg 80%
    19:00 +13°C° 0 mm 2 m/s 767 mmHg 82%
    20:00 +12°C° 0 mm 2 m/s 767 mmHg 85%
    21:00 +12°C° 0 mm 2 m/s 767 mmHg 86%
    22:00 +12°C° 0 mm 1 m/s 768 mmHg 87%
    23:00 +11°C° 0 mm 1 m/s 768 mmHg 88%

    27 Mai, Lundi

    Heure Température Précipitation Vent Pression Humidité
    00:00 +11°C° 0 mm 1 m/s 767 mmHg 89%
    01:00 +11°C° 0 mm 1 m/s 767 mmHg 90%
    02:00 +11°C° 0 mm 1 m/s 767 mmHg 91%
    03:00 +11°C° 0 mm 1 m/s 767 mmHg 92%
    04:00 +10°C° 0 mm 1 m/s 767 mmHg 93%
    05:00 +10°C° 0 mm 1 m/s 767 mmHg 93%
    06:00 +11°C° 0 mm 1 m/s 767 mmHg 93%
    07:00 +11°C° 0 mm 1 m/s 768 mmHg 92%
    08:00 +11°C° 0 mm 1 m/s 768 mmHg 92%
    09:00 +13°C° 0 mm 1 m/s 768 mmHg 82%
    10:00 +15°C° 0 mm 1 m/s 768 mmHg 73%
    11:00 +16°C° 0 mm 0 m/s 768 mmHg 63%
    12:00 +18°C° 0 mm 1 m/s 767 mmHg 62%
    13:00 +18°C° 0 mm 1 m/s 767 mmHg 61%
    14:00 +17°C° 0 mm 2 m/s 766 mmHg 59%
    15:00 +16°C° 0 mm 2 m/s 766 mmHg 64%
    16:00 +15°C° 0 mm 2 m/s 766 mmHg 70%
    17:00 +14°C° 0 mm 2 m/s 766 mmHg 75%
    18:00 +13°C° 0 mm 2 m/s 767 mmHg 78%
    19:00 +13°C° 0 mm 2 m/s 767 mmHg 81%
    20:00 +12°C° 0 mm 2 m/s 767 mmHg 84%
    21:00 +11°C° 0 mm 1 m/s 767 mmHg 86%
    22:00 +11°C° 0 mm 1 m/s 767 mmHg 87%
    23:00 +11°C° 0 mm 1 m/s 767 mmHg 88%

    28 Mai, Mardi

    Heure Température Précipitation Vent Pression Humidité
    00:00 +11°C° 0 mm 1 m/s 767 mmHg 89%
    01:00 +10°C° 0 mm 1 m/s 766 mmHg 90%
    02:00 +10°C° 0 mm 1 m/s 766 mmHg 91%
    03:00 +10°C° 0 mm 1 m/s 766 mmHg 91%
    04:00 +10°C° 0 mm 1 m/s 766 mmHg 91%
    05:00 +9°C° 0 mm 0 m/s 766 mmHg 91%
    06:00 +10°C° 0 mm 1 m/s 767 mmHg 90%
    07:00 +11°C° 0 mm 1 m/s 767 mmHg 89%
    08:00 +11°C° 0 mm 1 m/s 767 mmHg 88%
    09:00 +13°C° 0 mm 1 m/s 767 mmHg 80%
    10:00 +15°C° 0 mm 1 m/s 767 mmHg 71%
    11:00 +18°C° 0 mm 1 m/s 767 mmHg 63%
    12:00 +17°C° 0 mm 2 m/s 767 mmHg 62%
    13:00 +17°C° 0 mm 2 m/s 766 mmHg 61%
    14:00 +18°C° 0 mm 2 m/s 766 mmHg 59%
    15:00 +17°C° 0 mm 2 m/s 766 mmHg 65%
    16:00 +14°C° 0 mm 3 m/s 766 mmHg 70%
    17:00 +13°C° 0 mm 3 m/s 766 mmHg 76%
    18:00 +13°C° 0 mm 3 m/s 767 mmHg 79%
    19:00 +12°C° 0 mm 3 m/s 767 mmHg 83%
    20:00 +11°C° 0 mm 3 m/s 767 mmHg 86%
    21:00 +11°C° 0 mm 3 m/s 767 mmHg 87%
    22:00 +11°C° 0 mm 3 m/s 768 mmHg 88%
    23:00 +12°C° 0 mm 2 m/s 768 mmHg 89%
    Voir plus